This is the latest recevied weather packets stored in our database for station/object KE8AFF-13. If no packets are shown the sender has not sent any weather packets the latest 10 day(s).
| Time | Temp. | Humidity | Pressure | Rain* | Wind** | Luminosity | Snow |
|---|---|---|---|---|---|---|---|
| 1777654032 | 7.22° C | 96% | 1012.2 hPa | 6.1 mm | - | 49 W/m² | - |
| 1777653729 | 7.78° C | 96% | 1011.8 hPa | 1.27 mm | - | 42 W/m² | - |
| 1777653425 | 7.78° C | 95% | 1011.7 hPa | 0 mm | - | 66 W/m² | - |
| 1777653122 | 7.78° C | 95% | 1011.6 hPa | 0 mm | - | 53 W/m² | - |
| 1777652818 | 7.78° C | 95% | 1011.8 hPa | 0 mm | - | 48 W/m² | - |
| 1777652515 | 7.78° C | 95% | 1011.8 hPa | 0 mm | - | 56 W/m² | - |
| 1777652212 | 7.78° C | 95% | 1011.7 hPa | 0 mm | - | 82 W/m² | - |
| 1777651909 | 7.78° C | 95% | 1011.6 hPa | 0 mm | - | 108 W/m² | - |
| 1777651606 | 7.78° C | 95% | 1011.6 hPa | 1.78 mm | - | 89 W/m² | - |
| 1777651303 | 7.78° C | 95% | 1011.8 hPa | 0 mm | - | 50 W/m² | - |
| 1777651000 | 7.22° C | 95% | 1011.6 hPa | 0 mm | - | 63 W/m² | - |
| 1777650697 | 7.78° C | 95% | 1011.6 hPa | 0 mm | - | 68 W/m² | - |
| 1777650394 | 7.22° C | 95% | 1011.7 hPa | 0 mm | - | 122 W/m² | - |
| 1777650091 | 7.22° C | 95% | 1011.6 hPa | 1.78 mm | - | 109 W/m² | - |
| 1777649789 | 7.78° C | 96% | 1011.8 hPa | 1.78 mm | - | 122 W/m² | - |
| 1777649485 | 7.22° C | 95% | 1011.6 hPa | 1.27 mm | - | 125 W/m² | - |
| 1777649182 | 7.22° C | 96% | 1011.7 hPa | 1.27 mm | - | 98 W/m² | - |
| 1777648879 | 7.22° C | 96% | 1011.7 hPa | 1.78 mm | - | 85 W/m² | - |
| 1777648272 | 7.22° C | 96% | 1011.8 hPa | 1.27 mm | - | 80 W/m² | - |
| 1777647969 | 7.22° C | 96% | 1011.5 hPa | 0 mm | - | 86 W/m² | - |
| 1777647665 | 7.22° C | 97% | 1011.6 hPa | 0 mm | - | 74 W/m² | - |
| 1777647361 | 7.22° C | 97% | 1011.8 hPa | 0 mm | - | 85 W/m² | - |
| 1777647059 | 7.22° C | 97% | 1011.7 hPa | 0 mm | - | 94 W/m² | - |
| 1777646755 | 7.22° C | 97% | 1011.5 hPa | 0 mm | - | 122 W/m² | - |
| 1777646450 | 7.22° C | 97% | 1011.7 hPa | 0 mm | - | 154 W/m² | - |
* Rain latest hour (hover to see other rain measurements)
** Current wind speed in m/s (hover to see current wind gust speed)